Regional Weather Roundup
Issued by NWS

Home | Current Version | Previous Version | Text Only | Print | Product List | Glossary On
Versions: 1 2 3 4 5 6 7 8 9 10 11 12 13 14 15 16 17 18 19 20 21 22 23 24 25 26 27 28 29 30 31 32 33 34 35 36 37 38 39 40 41 42 43 44 45 46 47 48 49 50
000
ASUS42 KTBW 260510
RWRFL
FLORIDA REGIONAL WEATHER ROUNDUP
NATIONAL WEATHER SERVICE TAMPA BAY RUSKIN FL
1200 AM EST WED NOV 26 2014

NOTE: "FAIR" INDICATES FEW OR NO CLOUDS BELOW 12,000 FEET WITH NO
SIGNIFICANT WEATHER AND/OR OBSTRUCTIONS TO VISIBILITY.


FLZ001>010-012>015-112-114-115-260600-
PANHANDLE FLORIDA

CITY           SKY/WX    TMP DP  RH WIND       PRES   REMARKS
PENSACOLA      CLOUDY    51  35  54 NW13      30.10R
PENSACOLA NAS  CLOUDY    51  37  58 NW8G17    30.11F
MILTON NAS     CLOUDY    50  34  54 NW14G21   30.10S WCI  45
CRESTVIEW      CLOUDY    49  43  80 NW8       30.07F
DUKE FIELD     CLOUDY    49  45  85 NW6       30.07F
VALPARAISO     LGT RAIN  50  45  84 N6        30.07F
MARY ESTHER    CLOUDY    50  41  71 N8        30.07F
TRI COUNTY     LGT RAIN  48  46  93 CALM      30.07F
PANAMA CITY    CLOUDY    49  46  90 NW6       30.06F
TYNDALL AFB    LGT RAIN  48  46  91 N5        30.08S
APALACHICOLA   LGT RAIN  50  45  83 N16G24    30.04F WCI  44

STATION/POSITION SKY/WX   TEMP    WIND        PRES    WAVE   SWELL
                          AIR SEA DIR/SP/G            HT/PER HT/PER
                          (F)     (DEG/KT/KT) (MB)    (FT/S) (FT/S)
30.1N   87.6W              56 67  320/ 21/ 25 1019.1F   3/ 3
29.2N   88.2W              58 71  340/ 19/ 23 1020.9    5/ 6
28.7N   86.0W              59 76  360/ 25/ 31 1017.2R   9/ 7
PANAMA CITY BEAC           48 65  350/  5/  8 1018.0F
CAPE SAN BLAS    NOT AVBL
TOWER C                    51     340/ 31/ 35 1015.5S
28.5N   84.5W              61 71  330/ 27/ 31 1014.2R   8/ 6

$$
FLZ011-016>038-118-127-128-134-139-239-260600-
NORTH FLORIDA

CITY           SKY/WX    TMP DP  RH WIND       PRES   REMARKS
MARIANNA       LGT RAIN  47  47 100 N3        30.05F
TALLAHASSEE    LGT RAIN  48  44  86 NW14      30.04F WCI  42
PERRY          DRIZZLE   49  48  95 N20G26    30.00R WCI  43
CROSS CITY       N/A     57  57 100 N12       29.90F
LAKE CITY      DRIZZLE   55  55 100 N7        29.90F
GAINESVILLE    CLOUDY    62  61  96 N8        29.87F FOG
MAYPORT NAS    LGT RAIN  63  62  97 NW3       29.86S FOG
JACKSONVILLE   LGT RAIN  61  61 100 VRB5      29.88R FOG
JAX NAS        LGT RAIN  65  62  90 N10       29.88S VSB 1
JAX CRAIG      LGT RAIN  63  61  93 N7        29.86S FOG
JAX CECIL      LGT RAIN  61  61 100 NW8       29.87F
FERNANDINA BEA CLOUDY    66  64  94 N8        29.86S
ST AUGUSTINE   CLOUDY    69  68  96 S3        29.84F

STATION/POSITION SKY/WX   TEMP    WIND        PRES    WAVE   SWELL
                          AIR SEA DIR/SP/G            HT/PER HT/PER
                          (F)     (DEG/KT/KT) (MB)    (FT/S) (FT/S)
SHELL POINT                49     350/ 14/ 20   N/A
KEATON BEACH               51     340/  9/ 15 1014.5F
CEDAR KEY                  63      10/  6/  8 1012.5F
FERNANDINA                 61 62  340/  8/ 10 1011.0R
30.7N   81.3W                 63                N/A     4/ 9
MAYPORT                    62 63  300/  5/  7   N/A
31.4N   80.9W              62 64   10/ 16/ 19 1010.5F   4/10   3/10
ST AUGUSTINE               67     170/ 16/ 17 1010.4F

$$
FLZ040-043>046-052-053-057-058-063-144-260600-
INTERIOR CENTRAL FLORIDA

CITY           SKY/WX    TMP DP  RH WIND       PRES   REMARKS
OCALA          CLOUDY    66  64  94 N5        29.86F VSB 1
THE VILLAGES     N/A     70  70 100 SE6       29.78R
LEESBURG       LGT RAIN  70  68  93 SE8       29.87R
SANFORD        LGT RAIN  71  68  90 SW8       29.86F
ORLANDO INTL   LGT RAIN  71  70  96 SE10      29.89S
WINTER HAVEN   CLOUDY    71  70  96 CALM      29.88F
LAKELAND       LGT RAIN  70  70 100 MISG      29.86F
BARTOW         CLOUDY    72 N/A N/A S6        29.89F
OKEECHOBEE     CLOUDY   N/A N/A N/A S9        29.91F

$$
FLZ041-047-054-059-064-141-147-260600-
EAST CENTRAL FLORIDA

CITY           SKY/WX    TMP DP  RH WIND       PRES   REMARKS
DAYTONA BEACH  TSTM      70  69  97 SE10      29.86F FOG
DELAND         CLOUDY    68  68 100 SE8       29.87F
JFK SPACE CTR  RAIN      70  69  95 E6        29.90F
CAPE CANAVERAL CLOUDY    70  69  97 NE3       29.91R
PATRICK AFB    CLOUDY    72  72 100 VRB3      29.90F
MELBOURNE      CLOUDY    77  73  87 S12       29.89F
VERO BEACH     MOCLDY    75  73  93 S13       29.91F
FT PIERCE      PTCLDY    77  73  87 S8        29.91F
STUART         PTCLDY    75  72  88 S6        29.93F

STATION/POSITION SKY/WX   TEMP    WIND        PRES    WAVE   SWELL
                          AIR SEA DIR/SP/G            HT/PER HT/PER
                          (F)     (DEG/KT/KT) (MB)    (FT/S) (FT/S)
28.5N   80.2W              73 77   60/  6/  8 1013.3F
28.9N   78.5W              79 78  170/ 19/ 23 1013.4F   6/ 6   3/10
TRIDENT PIER               70 70   40/  5/  7 1012.4S
28.4N   80.5W                 70                N/A     3/ 9
27.6N   80.2W                 78                N/A     3/ 9

$$
FLZ050-056-061-142-242-148-248-149-249-151-251-155-255-
160-260-260600-
WEST CENTRAL FLORIDA

CITY           SKY/WX    TMP DP  RH WIND       PRES   REMARKS
CRYSTAL RIVER  CLOUDY    68  68 100 CALM      29.86S FOG
INVERNESS      CLOUDY    70  68  94 S3        29.87R
BROOKSVILLE    CLOUDY    70  69  97 S3        29.87R
ZEPHYRHILLS    LGT RAIN  64  64 100 CALM      29.86F
CLEARWATER     CLOUDY    72  70  93 S7        29.85F
TAMPA INTL     LGT RAIN  72  69  90 SE5       29.86F
TAMPA EXEC     LGT RAIN  73  70  88 SE6       29.85F
PLANT CITY     LGT RAIN  72 N/A N/A E3        29.87F
MACDILL AFB    CLOUDY    70  70 100 S6        29.85S
PETER O KNIGHT DRIZZLE   73  72  94 S8        29.86F
ST PETERSBURG  CLOUDY    71  70  96 SW7       29.83F
SARASOTA       CLOUDY    72  71  97 S13       29.84F
VENICE         MOCLDY    72  72 100 SE10      29.87F

STATION/POSITION SKY/WX   TEMP    WIND        PRES    WAVE   SWELL
                          AIR SEA DIR/SP/G            HT/PER HT/PER
                          (F)     (DEG/KT/KT) (MB)    (FT/S) (FT/S)
CEDAR KEY                  63      10/  6/  8 1012.5F
28.5N   84.5W              61 71  330/ 27/ 31 1014.2R   8/ 6
27.3N   84.3W                 79                N/A     7/ 6
CLEARWATER BEACH           69 67  220/  8/  9 1010.1F
MIDDLE TAMPA BAY           71     190/ 11/ 11 1011.4S
VENICE                     72 70  140/ 11/ 14 1010.9F

$$
FLZ066-069-070-075>078-162-262-165-265-260600-
SOUTHWEST FLORIDA AND KEYS

CITY           SKY/WX    TMP DP  RH WIND       PRES   REMARKS
PUNTA GORDA    TSTM      74  72  93 SW10      29.92R FOG
FT MYERS       CLOUDY    78  74  87 S8        29.88F
SOUTHWEST INTL CLOUDY    77  74  90 S15       29.89F
NAPLES         CLOUDY    78  75  90 S15       29.89F
MARCO ISLAND   CLOUDY    77  75  94 S14G22    29.90F
MARATHON       CLEAR     79  79 100 S8        29.94F
KEY WEST NAS   MOCLDY    77  77 100 S12       29.94F
KEY WEST INTL  MOCLDY    79  77  94 S10       29.94F

STATION/POSITION SKY/WX   TEMP    WIND        PRES    WAVE   SWELL
                          AIR SEA DIR/SP/G            HT/PER HT/PER
                          (F)     (DEG/KT/KT) (MB)    (FT/S) (FT/S)
VENICE                     72 70  140/ 11/ 14 1010.9F
NAPLES                     77 78  160/ 12/ 15 1012.9F
26.0N   85.6W              72 80  340/ 31/ 35 1013.3R  10/ 6   2/17
DRY TORTUGAS               79     190/ 13/ 14 1013.1F
NW FL BAY                  78     160/  8/  9 1015.1F
SAND KEY                   79     180/ 14/ 15 1013.8F
SOMBRERO KEY               79     170/ 16/ 17 1014.4F
LONG KEY                   80 80  190/  9/ 10 1015.5F
MOLASSES REEF              80 78  180/ 13/ 14 1014.0F

$$
FLZ067-068-071>074-168-172>174-260600-
SOUTHEAST FLORIDA

CITY           SKY/WX    TMP DP  RH WIND       PRES   REMARKS
W PALM BEACH   MOCLDY    80  76  87 S12       29.92F
FT LAUDER-EXEC CLOUDY    79  75  87 S12       29.93F
FT LAUDERDALE  MOCLDY    80  71  74 S14       29.93F
POMPANO BEACH  PTCLDY    80  75  84 S10G22    29.93F
PEMBROKE PINES MOCLDY    79  76  90 S10       29.95F
OPA LOCKA      CLOUDY    79  76  90 S12       29.94F
MIAMI          LGT RAIN  79  76  90 S10       29.94F
WEST KENDALL   CLOUDY    78  76  93 S6        29.94F
HOMESTEAD      PTCLDY    79  76  91 S8        29.94F

STATION/POSITION SKY/WX   TEMP    WIND        PRES    WAVE   SWELL
                          AIR SEA DIR/SP/G            HT/PER HT/PER
                          (F)     (DEG/KT/KT) (MB)    (FT/S) (FT/S)
PORT EVERGLADES            79     160/ 11/ 15 1013.7
VIRGINIA KEY               79 78  170/ 10/ 12 1014.5F
LAKE WORTH                 79 79  180/ 17/ 20 1013.3F
SETTLEMENT POINT           79     180/ 19/ 22 1015.2F

$$




USA.gov is the U.S. government's official web portal to all federal, state and local government web resources and services.